AirNav   Air Wisconsin pilot careers
 
 985 users online  

60F Seymour Municipal Airport
Seymour, Texas, USA

GOING TO SEYMOUR?


FAA INFORMATION EFFECTIVE 29 MARCH 2018

Location

FAA Identifier: 60F
Lat/Long: 33-38-54.6600N / 099-15-40.7000W
33-38.911000N / 099-15.678333W
33.6485167 / -99.2613056
(estimated)
Elevation: 1344 ft. / 409.7 m (surveyed)
Variation: 07E (1995)
From city: 3 miles N of SEYMOUR, TX
Time zone: UTC -5 (UTC -6 during Standard Time)
Zip code: 76380

Airport Operations

Airport use: Open to the public
Activation date: 10/1965
Control tower: no
ARTCC: FORT WORTH CENTER
FSS: FORT WORTH FLIGHT SERVICE STATION
NOTAMs facility: FTW (NOTAM-D service available)
Attendance: UNATNDD
Wind indicator: lighted
Segmented circle: yes
Lights: SS-SR
Beacon: white-green (lighted land airport)
Operates sunset to sunrise.

Airport Communications

CTAF: 122.9
  • APCH/DEP SERVICE PROVIDED BY FORT WORTH ARTCC ON FREQS 133.5/350.35 (WICHITA FALLS NR 2 RCAG).

Nearby radio navigation aids

VOR radial/distance  VOR name  Freq  Var
SPSr229/39.0WICHITA FALLS VORTAC112.7010E

 
NDB name  Hdg/Dist  Freq  Var  ID
SCOTLAND253/39.434405ESKB ... -.- -...

Airport Services

Parking: tiedowns
Airframe service: NONE
Powerplant service: NONE
Bottled oxygen: NONE
Bulk oxygen: NONE

Runway Information

Runway 17/35

Dimensions: 4300 x 50 ft. / 1311 x 15 m
Surface: asphalt, in fair condition
Weight bearing capacity: 
Single wheel: 4.0
Runway edge lights: medium intensity
Runway edge markings: 17/35 NSTD NPI MARKINGS. NRS 50 FT TALL; MARKINGS FADED.
RUNWAY 17  RUNWAY 35
Latitude: 33-39.265333N33-38.556667N
Longitude: 099-15.678333W099-15.678333W
Elevation: 1344.0 ft.1337.9 ft.
Gradient: 0.2%0.2%
Traffic pattern: leftleft
Runway heading: 173 magnetic, 180 true353 magnetic, 000 true
Markings: NSTD, in poor conditionNSTD, in poor condition
Touchdown point: yes, no lightsyes, no lights
Obstructions: 4 ft. fence, 200 ft. from runway, 203 ft. right of centerline
+4 FT FENCE 199 FT L & 203 FT R AT RY THLD.
15 ft. road, 550 ft. from runway, 23:1 slope to clear
+4 FT FENCE 203 FT L AT RY THLD; 20 FT HANGER 87 FT FM THLD TO 165 FT FM THLD, 246 FT R.

Airport Ownership and Management from official FAA records

Ownership: Publicly-owned
Owner: CITY OF SEYMOUR
PO BOX 31
SEYMOUR, TX 76380
Phone 940-889-3148
Manager: CITY OF SEYMOUR
PO BOX 31
SEYMOUR, TX 76380
Phone 940-889-3148
MAYOR NAN GILBERT-MATHIS

Airport Operational Statistics

Aircraft based on the field: 10
Single engine airplanes: 9
Multi engine airplanes: 1
    
Aircraft operations: avg 61/week *
75% local general aviation
25% transient general aviation
* for 12-month period ending 05 May 2015

Instrument Procedures

NOTE: All procedures below are presented as PDF files. If you need a reader for these files, you should download the free Adobe Reader.

NOT FOR NAVIGATION. Please procure official charts for flight.
FAA instrument procedures published for use from 29 March 2018 at 0901Z to 26 April 2018 at 0900Z.

 
IAPs - Instrument Approach Procedures
RNAV (GPS) RWY 17 **NEW**   download (150KB)
NOTE: Special Take-Off Minimums/Departure Procedures apply   download (113KB)

Other nearby airports with instrument procedures:

KONY - Olney Municipal Airport (28 nm SE)
F05 - Wilbarger County Airport (35 nm N)
15F - Haskell Municipal Airport (36 nm SW)
F14 - Wichita Valley Airport (37 nm NE)
KCWC - Kickapoo Downtown Airport (41 nm E)
 
Loc | Ops | Rwys | IFR | FBO | Links
Com | Nav | Svcs | Stats | Notes

AirNav Hotels Sweepstakes
 
Area around 60F (Seymour Municipal Airport)
 
Road maps at: MapQuest Bing Google
 
Aerial photo
WARNING: Photo may not be current or correct
Aerial photo of 60F (Seymour Municipal Airport)
Photo by Victor Estrada
Taken in October 2007

Do you have a better or more recent aerial photo of Seymour Municipal Airport that you would like to share? If so, please send us your photo.

 
Sectional chart

 
Airport distance calculator
Flying to Seymour Municipal Airport? Find the distance to fly.

From to 60F

Sunrise and sunset
Times for 25-Apr-2018
 Local
(UTC-5)
 Zulu
(UTC)
Morning civil twilight06:3011:30
Sunrise06:5611:56
Sunset20:1401:14
Evening civil twilight20:4101:41

Current date and time
Zulu (UTC)  25-Apr-2018 12:44:50
Local (UTC-5)  25-Apr-2018 07:44:50
 
METAR
KF05 
35nm N 
251235Z AUTO 35015G21KT 10SM SCT017 BKN024 OVC050 09/07 A3028 RMK AO1 LTG DSNT SE AND S P0004 T00880070
KCWC 
40nm E 
251235Z AUTO 36014G19KT 10SM -VCTSRA BKN022 OVC055 11/08 A3024 RMK AO2 LTG DSNT N S AND SW T01070077
KSPS 
43nm NE 
251241Z 36018KT 10SM -RA SCT021 OVC050 10/07 A3021 RMK AO2 LTG DSNT S-NW RAE24B31 P0001 T01000072
KFDR 
44nm N 
251238Z AUTO 34022G27KT 9SM -RA BKN016 OVC048 08/06 A3024 RMK AO2 PK WND 34027/1238 LTG DSNT SE TSB1158E13 P0002 T00830061
KRPH 
48nm SE 
251235Z AUTO 34010G19KT 11/08 A3018 RMK AO2 P0001 T01070080 PWINO
TAF
KSPS 
43nm NE 
251120Z 2512/2612 36017G24KT P6SM OVC060 TEMPO 2512/2516 4SM -TSRA OVC025CB FM251600 34017G24KT P6SM BKN050 TEMPO 2516/2518 5SM -SHRA OVC020 FM260100 32005KT P6SM SKC
NOTAMs
Click for the latest NOTAMs
NOTAMs are issued by the DoD/FAA and will open in a separate window not controlled by AirNav.

 

 
 

Would you like to see your business listed on this page?

 If your business provides an interesting product or service to pilots, flight crews, aircraft, or users of the Seymour Municipal Airport, you should consider listing it here.  To start the listing process, click on the button below
 
Add a business
 

Other Pages about Seymour Municipal Airport

Update a link
 
Copyright © AirNav, LLC. All rights reserved. Privacy Policy  Contact